FW5241 Weather Reports


time (UTC)temp
C
wind
direction
speed
KPH
gust
KPH
rain 1hr
cm
rain 24hr
cm
rain mn
cm
humidity
%
barometer
mb
20260507050036 6 161 0.0 0.0 0.00 0.76 0.00 96 1009.1
20260507044537 6 161 0.0 0.0 0.00 0.76 0.00 96 1009.3
20260507043031 6 247 0.0 0.0 0.00 0.76 0.00 96 1009.4
20260507041528 6 247 0.0 0.0 0.00 0.76 0.00 96 1009.4
20260507040024 6 247 0.0 0.0 0.00 0.76 0.00 96 1009.7
20260507034524 6 247 0.0 0.0 0.00 0.76 0.76 96 1009.5
20260507033030 6 247 0.0 0.0 0.00 0.76 0.76 95 1009.3
20260507031527 6 247 0.0 0.0 0.00 0.76 0.76 95 1009.0
20260507030019 7 247 0.0 0.0 0.00 0.76 0.76 94 1009.1
20260507024521 7 250 0.0 0.0 0.00 0.76 0.76 94 1009.4
20260507023014 7 250 0.0 0.0 0.00 0.76 0.76 93 1009.5
20260507021513 8 250 0.0 0.0 0.00 0.76 0.76 93 1009.6
20260507020012 8 250 0.0 0.0 0.00 0.76 0.76 93 1009.5
20260507014511 8 250 0.0 0.0 0.00 0.76 0.76 93 1009.8
20260507013010 8 249 0.0 0.0 0.00 0.76 0.76 93 1009.9
20260507011523 8 261 0.0 0.0 0.00 0.76 0.76 94 1009.8
20260507010006 8 263 0.0 0.0 0.00 0.76 0.76 94 1009.5
20260507004504 8 263 0.0 0.0 0.00 0.76 0.76 93 1009.4
20260507003003 8 263 0.0 0.0 0.00 0.76 0.76 93 1009.0
20260507001500 8 263 0.0 0.0 0.00 0.76 0.76 92 1008.7
20260507000059 8 273 0.0 0.0 0.00 0.76 0.76 92 1008.5
20260506234606 8 257 0.0 0.0 0.00 0.76 0.76 92 1008.5
20260506233059 8 342 0.0 0.0 0.00 0.76 0.76 92 1008.3
20260506231557 8 222 0.0 0.0 0.00 0.76 0.76 91 1008.3
20260506224600 8 122 0.0 0.0 0.00 0.76 0.76 91 1008.2
20260506223054 8 247 0.0 0.0 0.00 0.76 0.76 92 1008.0
20260506221551 8 214 0.0 0.0 0.00 0.76 0.76 94 1007.8
20260506220053 8 17 0.0 0.0 0.03 0.76 0.76 93 1007.4
20260506214549 9 113 0.0 0.0 0.03 0.76 0.76 94 1007.3
20260506213046 9 299 0.0 0.0 0.05 0.76 0.76 93 1007.1
20260506211543 9 253 0.0 0.0 0.05 0.76 0.76 94 1006.8
20260506210041 10 277 0.0 0.0 0.08 0.71 0.71 94 1006.3
20260506204542 10 249 0.0 0.0 0.10 0.71 0.71 93 1006.2
20260506203040 10 119 0.0 0.0 0.10 0.71 0.71 93 1005.9
20260506201538 10 168 0.0 0.0 0.10 0.71 0.71 92 1005.6
20260506200038 10 301 0.0 0.0 0.05 0.66 0.66 92 1005.3
20260506194528 11 246 0.0 0.0 0.03 0.64 0.64 90 1004.7
20260506193026 15 286 0.0 0.0 0.00 0.61 0.61 83 1004.0
20260506191527 16 341 0.0 0.0 0.00 0.61 0.61 89 1003.6
20260506190024 16 94 0.0 0.0 0.00 0.61 0.61 90 1003.7
20260506184526 16 140 0.0 0.0 0.00 0.61 0.61 90 1003.7
20260506183023 16 142 0.0 0.0 0.00 0.61 0.61 89 1003.7
20260506181522 16 126 0.0 0.0 0.00 0.61 0.61 91 1003.7
20260506180026 15 143 0.0 0.0 0.00 0.61 0.61 91 1003.8
20260506174520 15 144 0.0 0.0 0.00 0.61 0.61 93 1003.6
20260506173020 15 124 0.0 0.0 0.00 0.61 0.61 95 1003.6
20260506171517 15 143 0.0 0.0 0.00 0.61 0.61 95 1003.7
20260506170015 15 141 0.0 0.0 0.00 0.61 0.61 95 1003.9
20260506164515 15 128 0.0 0.0 0.00 0.61 0.61 93 1003.7
20260506163021 15 122 0.0 0.0 0.00 0.61 0.61 93 1004.1
20260506161515 15 243 0.0 0.0 0.05 0.61 0.61 94 1004.2
20260506160012 15 134 0.0 0.0 0.10 0.61 0.61 93 1004.2
20260506154512 15 129 0.0 0.0 0.13 0.61 0.61 94 1004.0
20260506153011 14 117 0.0 0.0 0.15 0.61 0.61 95 1003.8
20260506151511 14 130 0.0 0.0 0.10 0.56 0.56 94 1004.0
20260506150010 14 128 0.0 0.0 0.05 0.51 0.51 93 1004.1
20260506144510 14 319 0.0 0.0 0.05 0.48 0.48 95 1004.1
20260506143017 14 103 0.0 0.0 0.08 0.46 0.46 94 1003.7
20260506141509 14 151 0.0 0.0 0.10 0.46 0.46 96 1004.0
20260506140008 13 129 0.0 0.0 0.10 0.43 0.43 96 1003.6
20260506134506 13 128 0.0 0.0 0.15 0.43 0.43 96 1003.5
20260506133006 13 123 0.0 0.0 0.15 0.38 0.38 97 1004.2
20260506131506 13 114 0.0 0.0 0.15 0.36 0.36 97 1004.5
20260506130004 12 114 0.0 0.0 0.15 0.33 0.33 97 1005.0
20260506124502 12 114 0.0 0.0 0.13 0.28 0.28 96 1004.9
20260506123002 12 114 0.0 0.0 0.10 0.23 0.23 96 1004.9
20260506121501 12 114 0.0 0.0 0.10 0.20 0.20 96 1004.6
20260506120109 12 97 0.0 0.0 0.13 0.18 0.18 96 1004.6
20260506114559 12 97 0.0 0.0 0.13 0.15 0.15 96 1004.8
20260506114500 12 97 0.0 0.0 0.13 0.15 0.15 96 1004.9
20260506113059 12 97 0.0 0.0 0.13 0.13 0.13 95 1004.7
20260506111557 12 97 0.0 0.0 0.10 0.10 0.10 94 1004.8
20260506104558 12 97 0.0 0.0 0.03 0.03 0.03 92 1004.7
20260506103058 12 97 0.0 0.0 0.00 0.00 0.00 90 1004.7
20260506101603 13 97 0.0 0.0 0.00 0.00 0.00 89 1004.3
20260506100114 13 97 0.0 0.0 0.00 0.00 0.00 88 1004.4
20260506094552 13 97 0.0 0.0 0.00 0.00 0.00 85 1004.1
20260506093052 13 97 0.0 0.0 0.00 0.00 0.00 83 1004.1
20260506091551 14 97 0.0 0.0 0.00 0.00 0.00 80 1004.1
20260506090049 15 97 0.0 0.0 0.00 0.00 0.00 75 1004.0
20260506084611 15 97 0.0 0.0 0.00 0.00 0.00 76 1004.1
20260506083046 14 97 0.0 0.0 0.00 0.00 0.00 78 1004.3
20260506081552 13 139 0.0 0.0 0.00 0.00 0.00 84 1004.4
20260506073047 13 128 0.0 0.0 0.00 0.00 0.00 86 1004.2
20260506071544 13 128 0.0 0.0 0.00 0.00 0.00 86 1004.2
20260506061537 12 128 0.0 0.0 0.00 0.00 0.00 86 1004.8